Weather History for KCAD - May, 2013

Change the Weather History Date:

Saturday, May 4, 2013

  Actual Average Record
Temperature  
Mean Temperature 64 °F -  
Max Temperature 76 °F 57 °F 84 °F (1955)
Min Temperature 51 °F 33 °F 17 °F (1966)
Degree Days  
Heating Degree Days 2    
Growing Degree Days 14 (Base 50)    
Moisture  
Dew Point 36 °F    
Average Humidity 37    
Maximum Humidity 65    
Minimum Humidity 19    
Precipitation  
Precipitation 0.00 in - - ()
Sea Level Pressure  
Sea Level Pressure 30.08 in    
Wind  
Wind Speed 8 mph (ESE)    
Max Wind Speed 20 mph    
Max Gust Speed 29 mph    
Visibility 10 miles    
Events      
Averages and records for this station are not official NWS values.
T = Trace of Precipitation, MM = Missing Value Source: NWS Daily Summary

Daily Weather History Graph

Daily Weather History Graph

Search for Another Location

Airport or City:

Trip Planner

Search our weather history database for the weather conditions in past years. The results will help you decide how hot, cold, wet, or windy it might be!

Date:

Astronomy

May. 04, 2013 Rise Set
Actual Time 6:28 AM EDT 8:49 PM EDT
Civil Twilight 5:55 AM EDT 9:21 PM EDT
Nautical Twilight 5:15 AM EDT 10:02 PM EDT
Astronomical Twilight 4:31 AM EDT 10:47 PM EDT
Moon 3:38 AM EDT (5/4) 3:35 PM EDT (5/4)
Length of Visible Light 15h 26m
Length of Day
14h 21m
Waning Crescent, 27% of the Moon is Illuminated
May 4
Waning Crescent
May 9
New
May 18
First Quarter
May 25
Full
May 31
Last Quarter

Hourly Weather History & Observations

Time (EDT) Temp. Dew Point Humidity Pressure Visibility Wind Dir Wind Speed Gust Speed Precip Events Conditions
12:15 AM 61.7 °F 31.1 °F 32% 30.08 in 10.0 mi ESE 8.1 mph - N/A   Clear
12:35 AM 61.7 °F 30.4 °F 31% 30.08 in 10.0 mi ESE 9.2 mph - N/A   Clear
12:55 AM 61.3 °F 31.3 °F 32% 30.07 in 10.0 mi ESE 8.1 mph - N/A   Clear
1:15 AM 59.0 °F 31.3 °F 35% 30.07 in 10.0 mi East 8.1 mph - N/A   Clear
1:35 AM 59.0 °F 30.9 °F 35% 30.07 in 10.0 mi East 8.1 mph - N/A   Clear
1:54 AM 59.0 °F 31.6 °F 36% 30.07 in 10.0 mi East 8.1 mph - N/A   Clear
2:15 AM 57.2 °F 33.6 °F 41% 30.07 in 10.0 mi East 6.9 mph - N/A   Clear
2:35 AM 59.0 °F 35.1 °F 41% 30.07 in 10.0 mi East 9.2 mph - N/A   Clear
2:54 AM 59.0 °F 35.8 °F 42% 30.06 in 10.0 mi East 8.1 mph - N/A   Clear
3:15 AM 58.5 °F 36.7 °F 44% 30.06 in 10.0 mi East 9.2 mph - N/A   Clear
3:35 AM 57.0 °F 36.5 °F 46% 30.06 in 10.0 mi ESE 9.2 mph - N/A   Clear
3:54 AM 56.5 °F 37.2 °F 49% 30.06 in 10.0 mi ESE 8.1 mph - N/A   Clear
4:15 AM 56.5 °F 38.5 °F 51% 30.06 in 10.0 mi ESE 5.8 mph - N/A   Clear
4:34 AM 56.5 °F 38.5 °F 51% 30.07 in 10.0 mi Calm Calm - N/A   Clear
4:55 AM 56.5 °F 39.2 °F 52% 30.07 in 10.0 mi Calm Calm - N/A   Clear
5:15 AM 56.5 °F 39.6 °F 53% 30.07 in 10.0 mi Calm Calm - N/A   Clear
5:34 AM 52.7 °F 38.5 °F 58% 30.08 in 10.0 mi NNE 3.5 mph - N/A   Clear
5:55 AM 54.0 °F 39.7 °F 59% 30.08 in 10.0 mi Calm Calm - N/A   Clear
6:15 AM 53.1 °F 40.1 °F 61% 30.08 in 10.0 mi East 4.6 mph - N/A   Clear
6:34 AM 51.4 °F 39.6 °F 64% 30.08 in 10.0 mi East 4.6 mph - N/A   Clear
6:55 AM 52.2 °F 40.1 °F 64% 30.08 in 10.0 mi East 3.5 mph - N/A   Clear
7:15 AM 53.2 °F 41.7 °F 65% 30.08 in 10.0 mi East 5.8 mph - N/A   Clear
7:34 AM 54.1 °F 42.4 °F 65% 30.09 in 10.0 mi East 5.8 mph - N/A   Clear
7:55 AM 56.5 °F 43.7 °F 62% 30.09 in 10.0 mi East 5.8 mph - N/A   Clear
8:15 AM 59.0 °F 44.1 °F 58% 30.09 in 10.0 mi East 4.6 mph - N/A   Clear
8:34 AM 61.7 °F 43.2 °F 51% 30.09 in 10.0 mi ESE 6.9 mph - N/A   Clear
8:55 AM 63.0 °F 42.3 °F 47% 30.10 in 10.0 mi SSE 6.9 mph - N/A   Clear
9:15 AM 64.8 °F 40.8 °F 42% 30.10 in 10.0 mi SSE 9.2 mph - N/A   Clear
9:35 AM 64.0 °F 40.5 °F 42% 30.10 in 10.0 mi South 8.1 mph - N/A   Clear
9:55 AM 65.3 °F 40.8 °F 41% 30.10 in 10.0 mi South 8.1 mph - N/A   Clear
10:15 AM 68.7 °F 42.4 °F 39% 30.10 in 10.0 mi SSE 8.1 mph - N/A   Clear
10:35 AM 69.1 °F 42.4 °F 38% 30.10 in 10.0 mi South 5.8 mph - N/A   Clear
10:55 AM 68.7 °F 44.1 °F 41% 30.10 in 10.0 mi ESE 9.2 mph - N/A   Clear
11:15 AM 71.6 °F 44.6 °F 38% 30.10 in 10.0 mi ESE 6.9 mph - N/A   Clear
11:35 AM 71.6 °F 40.3 °F 32% 30.10 in 10.0 mi SE 5.8 mph - N/A   Clear
11:55 AM 71.6 °F 41.5 °F 34% 30.10 in 10.0 mi East 5.8 mph - N/A   Clear
12:15 PM 71.6 °F 40.1 °F 32% 30.10 in 10.0 mi East 8.1 mph - N/A   Clear
12:35 PM 71.6 °F 41.5 °F 34% 30.10 in 10.0 mi East 10.4 mph 16.1 mph N/A   Clear
12:55 PM 72.0 °F 38.7 °F 30% 30.10 in 10.0 mi SE 9.2 mph - N/A   Clear
1:14 PM 74.3 °F 40.5 °F 30% 30.09 in 10.0 mi ESE 8.1 mph 18.4 mph N/A   Clear
1:40 PM 76.6 °F 41.4 °F 28% 30.08 in 10.0 mi East 13.8 mph 25.3 mph N/A   Clear
1:55 PM 76.6 °F 39.9 °F 27% 30.08 in 10.0 mi ESE 11.5 mph 21.9 mph N/A   Clear
2:14 PM 76.6 °F 39.7 °F 27% 30.08 in 10.0 mi East 15.0 mph 20.7 mph N/A   Clear
2:35 PM 76.6 °F 37.8 °F 25% 30.06 in 10.0 mi ESE 12.7 mph 20.7 mph N/A   Clear
2:55 PM 76.6 °F 38.8 °F 26% 30.06 in 10.0 mi East 17.3 mph 28.8 mph N/A   Clear
3:14 PM 76.6 °F 32.5 °F 20% 30.05 in 10.0 mi ESE 19.6 mph - N/A   Clear
3:35 PM 76.6 °F 35.2 °F 22% 30.05 in 10.0 mi ESE 16.1 mph 25.3 mph N/A   Clear
3:55 PM 76.6 °F 37.2 °F 24% 30.04 in 10.0 mi East 13.8 mph 25.3 mph N/A   Clear
4:14 PM 76.6 °F 36.9 °F 24% 30.04 in 10.0 mi East 15.0 mph - N/A   Clear
4:35 PM 76.6 °F 37.0 °F 24% 30.04 in 10.0 mi ESE 18.4 mph 23.0 mph N/A   Clear
4:55 PM 76.6 °F 33.4 °F 21% 30.04 in 10.0 mi ESE 16.1 mph 21.9 mph N/A   Clear
5:14 PM 76.6 °F 34.7 °F 22% 30.04 in 10.0 mi ESE 18.4 mph - N/A   Clear
5:35 PM 74.3 °F 32.5 °F 22% 30.04 in 10.0 mi East 12.7 mph 20.7 mph N/A   Clear
5:55 PM 74.3 °F 31.6 °F 21% 30.04 in 10.0 mi ESE 15.0 mph - N/A   Clear
6:14 PM 74.3 °F 29.7 °F 19% 30.04 in 10.0 mi ESE 13.8 mph - N/A   Clear
6:35 PM 71.6 °F 28.2 °F 20% 30.05 in 10.0 mi ESE 15.0 mph 23.0 mph N/A   Clear
6:55 PM 71.6 °F 30.9 °F 22% 30.05 in 10.0 mi East 12.7 mph 18.4 mph N/A   Clear
7:14 PM 71.6 °F 31.6 °F 23% 30.05 in 10.0 mi ESE 12.7 mph 17.3 mph N/A   Clear
7:35 PM 71.1 °F 32.7 °F 24% 30.05 in 10.0 mi ESE 10.4 mph - N/A   Clear
7:55 PM 69.1 °F 31.5 °F 25% 30.05 in 10.0 mi ESE 12.7 mph - N/A   Clear
8:14 PM 66.6 °F 31.1 °F 27% 30.06 in 10.0 mi ESE 8.1 mph - N/A   Clear
8:35 PM 64.0 °F 32.0 °F 30% 30.07 in 10.0 mi ESE 6.9 mph - N/A   Clear
8:55 PM 63.5 °F 32.2 °F 31% 30.07 in 10.0 mi East 9.2 mph - N/A   Clear
9:15 PM 62.8 °F 30.4 °F 30% 30.08 in 10.0 mi East 11.5 mph - N/A   Clear
9:35 PM 62.8 °F 28.4 °F 27% 30.09 in 10.0 mi East 9.2 mph - N/A   Clear
9:55 PM 61.7 °F 27.7 °F 28% 30.09 in 10.0 mi East 10.4 mph - N/A   Clear
10:15 PM 61.2 °F 28.2 °F 29% 30.10 in 10.0 mi East 8.1 mph - N/A   Clear
10:35 PM 59.0 °F 27.1 °F 30% 30.10 in 10.0 mi ESE 9.2 mph - N/A   Clear
10:55 PM 59.0 °F 28.4 °F 31% 30.10 in 10.0 mi ESE 6.9 mph - N/A   Clear
11:15 PM 56.5 °F 28.2 °F 34% 30.10 in 10.0 mi ESE 6.9 mph - N/A   Clear
11:35 PM 56.5 °F 29.1 °F 35% 30.10 in 10.0 mi ESE 6.9 mph - N/A   Clear
11:55 PM 56.5 °F 29.5 °F 36% 30.10 in 10.0 mi ESE 9.2 mph - N/A   Clear